Погода Кемь-Порт

Поиск расширенной информации на нашем сайте:

Полезная информация:

Новости сайта



02.01.2020
Опубликован Долгосрочный прогноз погоды по городам России и ближнего зарубежья на январь 2020 года.
Карты: Прогноз на январь и февраль 2020 года, Сравнение прогнозируемой аномалии приземной температуры воздуха на январь 2020 года по разным моделям.




Погода Кемь-Порт - сегодня

Время (UTC), дата Ветер
(°,м/с) 
Видим.   Явления Облачность Т
(°С)
Тd
(°С)
f(%) Тe
(°С)
Pmin
(гПа)
dP
(гПа)
Po
(мм)
O2
(г/м3)
Тmin Tmax R s Состояние
почвы
15 29.11.20 190 (Ю) 20000 м    10/10 800 м 
[Sc]
-3.3 -4.4 92 -6  1032.8  -0.6  774  316           
18 29.11.20 200 (Ю) 20000 м    10/10 500 м 
[Sc]
-3.4 -4.4 93 -6  1032.2  -0.6  773  316    -2.7       
21 29.11.20 200 (Ю) 20000 м    10/10 960 м 
[Sc]
-3.1 -4.3 91 -5  1031.5  -0.7  773  316           
00 30.11.20 190 (Ю) 20000 м    10/10 660 м 
[Sc]
-2.8 -3.8 93 -5  1030.2  -1.3  772  315           
03 30.11.20 200 (Ю) 20000 м    10/10 570 м 
[Sc]
-2.4 -3.7 91 -4  1028.7  -1.5  771  314  -3.5         
06 30.11.20 190 (Ю) 20000 м    10/10 500 м 
[Sc]
-2.3 -3.3 93 -3  1027.7  -1  770  313        равномерный
сухой снег
100% 
09 30.11.20 170 (Ю) 10 км  в посл. час ливневой снег  10/10 450 м 
[Sc]
-2.2 -2.8 96 -5  1026.2  -1.5  769  313           
12 30.11.20 170 (Ю) 4000 м  дымка{ливн. осадки}  10/10 540 м 
[Sc]
-1.7 -2.5 94 -4  1024.1  -2.1  767  311           
15 30.11.20 160 (Ю) 20000 м    10/10 480 м 
[Sc]
-0.6 -1.4 94 -3  1022  -2.1  766  309      0.0     
18 30.11.20 150 (ЮВ) 20000 м    10/10 500 м 
[Sc]
+0 -0.6 96 -2  1020.3  -1.7  764  308    +0  0.0     
21 30.11.20 180 (Ю) 10 км  {снег}  10/10 360 м 
[St]
+0.2 -0.3 96 -2  1018.5  -1.8  763  307           
00 01.12.20 160 (Ю) 4000 м  слаб. снег  10/10 240 м 
[Frnb|Ns]
+0 -0.2 99 -1  1016.8  -1.7  762  307           
03 01.12.20 180 (Ю) 4000 м  слаб. снег  10/10 330 м 
[Frnb|Ns]
+0.1 +0 99 -2  1015.1  -1.8  761  306  -0.6       
06 01.12.20 220 (ЮЗ) 4000 м  слаб. снег  8/5 300 м средняя, верхняя 
[Frnb|Ac trans|Ci fib]
-0.1 -0.3 99 -3  1015.2  0.1  761  307      10  равномерный
мокрый или
старый снег
100% 
09 01.12.20 200 (Ю) 20000 м  {снег}  ясно 
-2.2 -3.4 91 -5  1016.3  1.1  761  310           
12 01.12.20 200 (Ю) 20000 м  {снег}  ясно 
-2.5 -3.4 94 -5  1016.3  761  310           
15 01.12.20 190 (Ю) 20000 м    9/0 верхняя 
[Cs]
-2.5 -3.3 94 -5  1016.3  761  310      0.4     
21 01.12.20 200 (Ю) 4000 м  слаб. ливневой снег  9/9 300 м кучево-дожд. 
[Cb cap]
-1.3 -1.5 99 -2  1016.5  0.6  762  309           
00 02.12.20 260 (З) 20000 м  {ливн. осадки}  9/9 600 м 
[Sc]
-1.6 -2.1 96 -4  1019.3  2.8  764  310           
03 02.12.20 250 (З) 20000 м    10/10 570 м 
[Sc]
-1 -1.5 96 -3  1021.3  765  310  -2.5       
06 02.12.20 270 (З) 20000 м    10/10 800 м 
[Sc]
-0.4 -2.6 85 -2  1023.1  1.8  767  310      0.9  11  равномерный
сухой снег
100% 
09 02.12.20 250 (З) 4000 м  слаб. ливневой снег  9/9 420 м кучево-дожд. 
[Cb cap]
-1.5 -2.3 94 -4  1024.4  1.3  768  311           
12 02.12.20 230 (ЮЗ) 20000 м  в посл. час ливневой снег  10/10 600 м кучево-дожд. 
[Cb cap]
-1.6 -3.2 89 -4  1024.8  0.4  768  312           
15 02.12.20 240 (ЮЗ) 20000 м  в посл. час ливневой снег  10/10 600 м кучево-дожд. 
[Cb cap]
-1.9 -3.5 89 -5  1025  0.2  768  312      0.0     
18 02.12.20 230 (ЮЗ) 4{10}  20000 м  {ливн. осадки}  4/4 600 м 
[Sc]
-2.8 -4.1 91 -6  1025  768  313    -0.4  0.0     
Время (UTC), дата Ветер
(°,м/с) 
Видим.   Явления Облачность Т
(°С)
Тd
(°С)
f(%) Тe
(°С)
Pmin
(гПа)
dP
(гПа)
Po
(мм)
O2
(г/м3)
Тmin Tmax R s Состояние
почвы

Для получения пояснительной информации подведите курсор к названию столбца.

ПОГОДА Кемь-Порт - архив

Всё, что Вы хотите узнать о погоде Кемь-Порт - удобно и подробно!

Выберите нужную дату (начиная с 1 января 2019* года) и нажмите кнопку "Найти".
Будут отображены архивные сводки погоды по пункту Кемь-Порт, начиная с указанной даты.


Отображать данные в формате CSV (для использования в таблицах Excel)


Внимание! Наш архив погоды предназначен исключительно для личного некоммерческого использования в познавательных целях. Если Вам необходимы официальные справки о состоянии погоды (для производственных, юридических, коммерческих и т.п. целей), обращайтесь в органы Росгидромета.

*Примечание: данная дата относится к архиву по метеостанциям СССР (Россия, СНГ, Балтия).
Архив по метеостанциям Зарубежной Европы и Азии (кроме Китая) хранится 10 дней, по другим регионам земного шара (Китай, Африка, Америка, Австралия, Океания) - 1 день.

Кемь-Порт - район местоположения метеостанции


Название, широта, долгота, высота метеостанции:
Кемь-Порт 64.98°ш. 34.80°д. 8 м над ур. моря [Российская Федерация]

Дополнительная информация

В oтличие oт бoльшинства пoгoдных сайтoв мы публикуем пoдрoбную метеoинфoрмацию в детальнoм прoфессиoнальнoм фoрмате.

Характеристики температуры и влажнoсти вoздуха измеряются на высoте 2 м в тени вдали oт зданий и деревьев.
Скoрoсть ветра измеряется на высoте 10 м (на урoвне рoста челoвека скoрoсть ветра ниже в 1.5-2 раза). Если метеoстанция нахoдится в гoрoде или в лесу, тo скoрoсть ветра занижена на 2-4 м/с пo сравнению с oткрытым местoм. Скoрoсть ветра над акватoриями крупных рек и oзёр, а также на вершинах хoлмoв на 2-5 м/с выше, чем в oбычных услoвиях.
Атмoсфернoе давление в разных тoчках местнoсти мoжет значительнo oтличаться oт давления на метеoстанции, в зависимoсти oт услoвий рельефа (при пoдъёме на 10 м давление пoнижается примернo на 1 мм рт.ст.).